Date,TemperatureHighF,TemperatureAvgF,TemperatureLowF,DewpointHighF,DewpointAvgF,DewpointLowF,HumidityHigh,HumidityAvg,HumidityLow,PressureMaxIn,PressureMinIn,WindSpeedMaxMPH,WindSpeedAvgMPH,GustSpeedMaxMPH,PrecipitationSumIn
2013-2-1,27,14,-2,20,7,-7,83,75,69,30.33,29.95,11,2,17,0.00
2013-2-2,37,29,24,32,24,19,94,81,73,30.06,29.90,6,1,11,0.01
2013-2-3,42,33,20,30,24,15,84,71,57,30.07,29.62,8,2,17,0.01
2013-2-4,36,27,22,30,23,19,91,83,76,29.87,29.61,6,1,15,0.00
2013-2-5,51,37,26,35,28,24,93,74,43,29.91,29.69,8,1,15,0.00
2013-2-6,53,41,29,40,33,26,88,75,60,29.91,29.66,6,1,13,0.00
2013-2-7,40,34,29,36,29,23,90,84,80,30.08,29.70,8,2,14,0.00
2013-2-8,33,28,25,27,25,22,92,86,77,30.19,30.00,10,1,12,0.00
2013-2-9,49,37,28,39,32,26,93,83,67,30.01,29.51,12,4,17,0.00
2013-2-10,45,37,30,42,33,23,97,86,74,29.63,29.09,17,5,24,0.05
2013-2-11,30,30,30,25,24,23,83,78,75,29.70,29.64,8,5,20,0.00
2013-2-12,50,37,20,29,24,18,93,62,36,29.95,29.75,5,1,15,0.00
2013-2-13,55,38,23,34,27,20,91,68,39,29.75,29.56,7,1,13,0.00
2013-2-14,45,36,21,33,28,15,90,72,48,30.12,29.62,14,3,17,0.00
2013-2-15,32,23,15,24,17,11,91,79,52,30.21,30.12,6,1,10,0.01
2013-2-16,34,23,10,26,19,8,91,82,71,30.20,29.87,12,1,12,0.04
2013-2-17,55,38,25,37,29,20,85,70,52,29.87,29.39,14,2,15,0.00
2013-2-18,44,31,21,34,25,14,91,76,63,29.91,29.38,14,3,27,0.00
2013-2-19,27,16,8,15,4,0,77,60,34,30.26,29.91,13,3,19,0.00
2013-2-20,24,15,4,9,4,-2,77,63,50,30.28,30.09,5,0,9,0.00
2013-2-21,25,22,20,20,14,8,92,73,57,30.12,29.71,7,1,13,0.00
2013-2-22,24,19,11,18,15,8,91,84,72,29.90,29.71,7,1,13,0.13
2013-2-23,37,22,8,28,17,6,92,83,67,29.88,29.70,10,1,10,0.19
2013-2-24,44,31,21,30,25,19,93,80,56,29.92,29.76,3,0,6,0.00
2013-2-25,36,29,26,29,26,23,93,86,75,29.93,29.77,3,0,8,0.00
2013-2-26,32,28,25,29,26,23,95,91,86,29.77,29.64,8,1,13,0.00
2013-2-27,37,30,23,27,24,20,90,79,64,29.95,29.74,9,4,19,0.00
2013-2-28,33,27,25,26,23,20,86,82,73,30.09,29.95,8,2,15,0.00